Theta_e
311 311 310 310 311 311 311 312 313 312 313 313 314 313 313 314 316 312 302 308 311 313 313 306 304 304 306 306 310 314 302 299 302 303 306 303 302 299 299 299 300 299 296 299 301
310 310 310 309 310 310 310 311 311 312 312 312 313 313 312 314 310 304 309 311 310 311 305 302 301 303 300 304 307 305 302 303 306 306 305 308 304 307 298 299 297 296 297 299 299
310 309 309 309 309 309 310 310 310 311 311 312 312 312 311 312 303 300 308 308 308 308 305 303 302 302 298 301 303 305 300 307 306 302 300 299 297 301 297 299 303 298 295 296 297
310 309 308 308 309 309 309 310 309 310 311 311 312 311 310 309 290 299 304 303 305 305 302 300 299 298 297 296 301 297 302 306 305 301 301 298 299 296 297 298 298 299 298 296 296
309 308 307 307 308 308 308 309 309 310 310 311 310 310 308 299 297 299 301 301 301 300 299 299 298 298 296 298 299 297 299 301 302 299 298 298 298 301 299 301 298 299 297 296 296
308 308 307 306 307 308 308 308 309 309 310 310 309 309 303 291 298 298 297 298 299 299 298 299 299 301 298 297 296 297 297 298 299 298 299 295 297 297 299 303 295 297 296 296 296
308 307 306 306 306 307 308 307 308 309 310 310 309 306 301 295 298 298 298 298 298 298 298 300 301 299 300 296 298 296 291 294 294 295 294 295 292 294 300 302 297 296 296 297 297
308 306 306 305 306 306 307 307 308 309 310 309 308 306 294 298 299 296 298 297 298 299 300 301 301 299 298 297 294 290 290 285 290 293 292 292 288 296 300 294 294 293 294 296 296
308 307 306 306 306 306 306 307 308 309 309 308 301 301 292 296 294 296 296 296 297 299 300 300 300 296 295 290 287 289 283 286 288 292 290 290 287 292 294 294 293 295 295 295 295
310 308 306 306 305 306 306 308 307 306 302 303 300 291 293 290 293 294 295 296 295 296 296 295 294 289 289 287 280 284 285 287 287 288 288 286 286 290 290 291 291 293 295 295 294
310 308 306 305 305 305 304 302 294 291 294 290 290 291 290 292 294 292 295 293 295 293 287 291 285 283 286 288 289 288 286 285 287 287 285 285 285 288 291 288 288 292 294 295 294
310 308 306 305 304 304 302 294 292 292 285 292 292 289 291 291 288 290 293 289 290 285 288 287 282 288 290 289 287 287 284 284 287 285 283 283 284 287 289 290 289 290 292 295 295
310 308 306 303 303 301 298 296 297 295 285 288 291 289 288 290 288 287 290 290 288 286 286 284 285 287 287 285 284 284 283 282 282 284 282 279 279 282 286 289 291 292 293 294 296
310 308 305 302 298 297 293 296 297 298 284 285 283 287 287 290 285 290 291 289 287 284 285 284 286 284 282 282 284 279 283 284 283 279 275 280 272 280 284 286 287 290 291 292 294
310 308 305 302 297 293 293 296 297 295 273 284 281 289 288 286 284 284 289 288 284 283 283 280 280 278 281 280 284 280 282 281 280 278 277 276 273 279 281 282 285 288 289 290 292
310 307 305 300 299 296 297 296 294 283 271 277 282 281 281 284 284 285 285 288 286 283 282 278 281 280 280 280 281 283 279 279 277 276 269 276 276 276 281 282 285 287 288 289 288
310 307 302 301 293 296 296 292 280 275 282 277 277 281 281 279 280 282 280 279 277 274 276 278 277 279 281 278 280 279 277 274 270 267 269 276 275 279 284 287 285 286 287 286 287
310 306 300 296 297 297 294 285 274 280 282 280 280 280 278 280 279 280 279 277 280 279 278 275 273 276 279 277 277 277 277 275 268 271 273 274 273 278 284 287 284 283 282 285 284
302 295 294 293 296 296 288 276 276 280 282 279 279 277 277 279 279 279 278 278 281 281 277 276 274 276 277 278 277 276 273 278 274 269 268 273 277 282 283 283 284 284 282 283 283
295 289 286 291 296 292 283 278 281 282 282 281 278 280 279 277 276 277 278 281 280 282 281 278 272 275 274 276 276 275 278 274 273 263 264 274 274 275 279 282 282 283 283 283 284
292 286 287 292 295 286 276 278 282 284 283 279 279 280 280 278 278 277 280 280 281 279 281 279 277 272 274 272 273 273 274 275 276 274 269 268 273 281 282 282 280 281 283 283 282
289 284 288 291 282 282 278 282 283 281 282 281 280 280 280 280 278 278 279 281 282 281 277 281 280 270 272 273 274 273 275 277 273 269 272 272 273 284 284 283 282 281 284 283 282
284 283 288 286 279 278 281 279 282 281 282 282 281 282 282 280 277 280 280 280 282 280 278 279 276 271 271 271 272 269 275 277 278 275 269 267 273 282 281 282 283 282 283 283 282
285 282 284 285 285 280 279 281 279 283 282 283 282 283 280 279 281 277 279 278 280 281 284 283 274 272 271 271 272 267 270 275 272 267 271 274 276 280 283 283 285 285 284 283 282
285 282 281 279 281 281 281 280 278 280 281 282 280 280 279 276 278 277 280 277 278 281 281 280 272 270 271 275 273 271 269 271 269 273 268 274 274 279 281 282 284 285 285 284 282
281 280 284 280 280 279 281 278 278 280 281 278 277 280 281 278 279 278 279 279 279 277 278 277 275 269 267 276 275 271 271 271 275 274 273 274 274 281 282 283 283 284 284 282 282
288 286 282 278 279 277 278 279 280 281 282 283 282 281 279 280 283 283 284 284 283 278 277 275 276 273 267 275 273 267 273 273 275 274 275 272 278 284 283 283 283 285 284 282 282
Wind_Speed
11 10 11 11 12 13 12 12 12 12 12 12 13 13 13 13 15 7 7 2 4 4 4 6 7 7 7 6 5 2 4 8 12 12 5 4 4 3 1 3 3 5 5 4 18
10 9 12 12 12 13 13 12 12 13 13 12 13 13 13 13 9 12 6 4 4 3 4 6 7 7 5 6 5 6 6 11 2 6 1 3 3 3 1 2 3 3 5 11 14
11 11 11 12 13 13 15 13 13 13 13 13 14 13 12 11 5 1 4 3 0 3 6 4 6 5 8 7 5 6 8 11 1 4 4 1 1 2 1 5 5 2 11 12 9
12 12 12 12 13 13 14 14 12 13 13 13 13 13 11 5 5 4 2 1 2 7 7 6 7 5 5 9 8 10 11 8 4 3 2 3 1 2 5 6 5 3 17 16 14
10 13 13 12 13 14 14 15 13 13 13 13 12 11 8 5 6 6 2 4 6 6 9 9 9 9 8 5 8 10 9 9 4 4 4 4 7 6 5 5 5 5 11 13 13
11 11 13 13 13 14 14 15 13 12 13 12 11 8 5 7 4 3 1 2 6 6 7 7 5 5 7 7 7 4 6 7 4 5 6 5 6 8 12 12 11 12 15 13 14
8 9 11 13 14 13 15 14 14 13 12 11 9 6 8 9 2 3 2 1 1 6 7 5 5 4 3 7 2 3 5 8 9 7 5 5 7 17 13 11 11 13 14 15 17
10 7 11 13 13 13 14 14 14 14 12 10 7 8 8 3 3 3 3 5 4 4 4 5 4 6 2 3 2 4 5 4 0 11 4 6 14 8 9 14 14 11 10 13 16
11 10 8 11 12 13 15 14 15 14 11 8 5 6 5 2 4 4 3 3 4 2 1 2 4 4 4 4 5 8 6 10 6 12 7 10 7 3 6 10 9 10 12 12 13
11 12 9 8 10 13 16 17 11 8 6 7 7 3 5 1 5 1 2 4 4 6 4 5 4 4 5 8 9 7 12 9 9 10 8 7 16 13 6 7 9 9 11 13 15
12 10 9 6 8 12 11 5 3 4 7 9 4 2 1 4 2 4 1 5 5 5 6 7 5 13 17 14 14 12 14 13 9 4 5 10 15 15 12 10 11 13 13 15 17
12 10 8 5 7 11 7 4 3 2 7 18 10 4 2 2 3 6 3 7 6 7 10 4 12 12 10 8 6 10 13 14 9 5 4 8 15 15 14 15 17 18 16 17 14
11 7 5 4 6 7 6 5 2 5 5 4 5 6 4 6 4 10 4 4 6 8 11 10 2 4 3 3 4 9 8 8 10 3 6 6 11 12 14 23 18 16 17 18 21
13 10 6 2 4 4 1 6 3 3 4 7 6 3 5 3 4 3 1 2 4 7 8 8 2 3 3 4 6 7 5 9 7 2 5 5 11 7 10 14 13 20 18 18 17
16 14 10 4 4 3 7 7 5 2 4 5 3 2 2 5 5 2 1 1 6 7 6 6 5 4 6 4 6 4 2 3 2 5 7 4 6 6 4 7 11 16 14 14 17
17 17 16 4 1 2 5 8 2 2 12 2 4 4 5 4 3 4 4 1 2 3 2 2 1 2 1 2 3 2 2 1 2 2 5 10 10 2 6 5 5 4 10 11 11
20 19 10 6 5 1 3 3 3 7 1 1 2 4 5 5 5 5 6 7 7 6 8 4 5 3 1 4 0 2 3 1 2 1 10 1 8 14 12 13 6 6 6 7 8
21 21 9 5 3 3 2 1 6 4 8 2 3 4 5 5 4 6 6 6 9 3 2 7 5 8 6 1 6 8 4 5 7 5 3 2 8 8 8 10 6 4 2 6 4
20 4 4 5 2 2 3 7 8 6 1 4 3 3 5 4 2 6 6 5 10 12 9 6 2 3 5 4 3 6 5 1 2 2 3 6 8 8 9 7 5 6 3 6 6
5 4 3 6 6 2 2 16 8 4 3 1 4 6 5 6 6 8 10 5 5 9 1 1 4 2 2 2 2 1 3 4 1 2 5 6 6 8 5 6 6 8 7 8 4
3 3 2 6 2 3 5 8 5 3 5 3 4 3 4 4 4 5 5 3 2 5 3 2 3 2 1 7 8 3 3 3 1 3 5 2 7 4 6 5 2 3 3 4 5
3 2 3 6 3 2 4 7 2 1 3 3 4 5 4 5 4 3 6 4 5 7 9 5 4 5 6 4 3 2 4 6 5 6 4 3 11 5 6 6 5 4 6 4 2
2 1 2 2 2 3 2 4 4 2 1 3 4 1 6 2 3 7 4 4 5 4 7 6 4 3 1 3 4 4 6 4 2 3 7 4 8 2 4 4 5 5 6 4 4
1 1 2 1 1 3 6 4 4 9 11 6 5 3 1 4 10 6 5 2 4 2 2 6 2 7 7 4 4 3 3 6 5 4 0 18 19 17 17 16 14 12 9 7 6
3 1 2 2 4 4 3 4 8 4 1 2 5 13 6 6 7 10 13 3 2 2 2 2 4 1 3 3 5 8 6 8 9 14 8 13 16 19 9 17 21 18 21 17 7
3 4 2 4 2 4 6 5 5 8 3 4 7 2 5 13 8 3 3 3 6 2 3 3 2 3 5 5 7 9 10 12 18 15 18 16 31 30 19 18 19 15 11 9 8
0 2 2 5 3 2 4 5 5 5 9 8 4 4 5 9 11 12 9 5 5 1 7 4 5 3 5 2 1 11 20 21 14 10 13 15 30 23 20 12 11 13 10 7 8
Wind_Direction
316 323 319 323 326 316 311 314 317 316 319 322 322 317 317 317 305 226 242 69 67 30 323 277 258 247 234 245 231 236 252 250 254 269 230 127 42 47 203 302 23 30 37 342 136
312 320 318 321 322 317 316 315 312 316 322 323 316 318 317 320 286 255 112 108 71 12 257 254 257 203 232 218 190 216 227 247 287 312 161 220 180 219 10 286 199 98 42 114 135
305 306 311 318 318 319 322 316 317 320 319 319 318 315 315 311 276 194 90 88 115 239 257 288 282 265 234 247 204 205 244 274 67 56 24 22 113 201 100 264 200 279 154 150 166
303 302 312 318 317 319 314 312 318 314 315 317 318 314 309 274 254 89 91 54 232 254 232 212 226 217 223 223 214 262 263 266 76 103 119 200 41 172 176 252 330 70 160 163 181
297 300 305 314 314 314 316 313 312 313 313 311 315 313 297 215 254 140 167 192 228 212 218 219 224 221 249 227 232 235 261 292 20 134 249 126 226 224 240 201 174 97 141 172 187
291 298 301 305 311 315 317 311 307 310 309 311 308 305 258 239 113 109 137 194 250 221 218 241 247 303 293 281 252 31 341 290 168 240 224 225 247 169 232 203 159 158 171 181 199
272 300 301 304 308 314 318 308 305 305 305 302 297 247 259 248 109 117 170 296 348 283 256 242 337 266 346 251 357 2 291 242 221 209 249 189 252 230 219 160 188 191 190 178 209
257 267 288 298 305 311 311 304 302 299 294 290 287 243 253 34 1 190 200 179 223 238 283 19 282 271 259 69 185 229 204 246 72 146 186 180 256 257 202 175 203 196 200 204 200
248 253 259 295 306 312 312 304 295 285 274 268 246 239 252 156 200 111 277 245 166 193 232 240 242 223 127 223 243 205 251 227 226 182 135 193 279 22 13 172 207 203 203 202 200
244 249 259 285 304 315 315 297 282 295 231 225 261 283 200 172 95 104 117 261 204 160 163 205 227 214 204 203 216 218 222 232 242 196 225 208 252 274 222 222 229 230 203 205 202
235 245 253 286 312 319 326 318 208 191 237 207 160 222 113 78 199 206 180 177 210 206 201 203 208 208 218 219 246 269 289 288 289 181 171 231 251 258 257 206 222 222 228 209 205
219 234 251 279 313 310 297 266 60 326 299 226 241 269 126 323 192 167 198 197 201 199 209 133 239 245 243 251 271 251 257 267 287 127 185 265 264 261 253 243 214 216 213 217 201
211 217 248 280 316 292 244 287 20 318 256 212 203 228 162 185 245 162 195 235 200 211 200 207 127 49 198 225 257 258 259 269 264 302 215 286 277 249 243 247 245 219 216 214 206
183 185 170 270 295 341 260 7 318 308 300 215 209 192 159 202 239 78 238 257 200 224 217 239 237 172 160 228 213 256 336 254 254 315 249 105 288 260 285 276 223 231 215 217 210
181 171 158 179 352 312 347 325 309 256 290 83 152 1 141 211 133 153 28 196 200 189 131 216 149 182 207 203 192 208 345 10 343 250 296 241 263 263 176 270 248 222 220 215 211
188 171 151 122 176 15 341 317 301 133 248 151 118 160 159 205 138 134 161 243 359 73 305 61 51 312 109 72 15 127 155 183 177 191 271 206 215 265 219 244 304 278 220 219 202
190 170 155 137 139 122 49 304 89 220 306 221 195 161 242 166 164 184 171 176 163 132 208 150 198 115 185 119 175 228 167 216 308 13 236 153 217 239 300 295 280 307 333 340 195
184 145 96 55 113 106 146 84 199 247 255 202 130 167 203 134 208 201 173 194 244 253 142 172 249 159 173 226 183 188 193 177 218 208 284 24 243 250 230 262 44 24 244 299 232
107 28 58 12 324 115 136 205 219 198 38 163 128 176 214 191 186 168 223 228 194 188 183 168 163 68 20 342 61 177 206 36 14 130 38 229 272 312 239 292 325 331 354 305 290
94 88 104 304 328 41 140 220 232 35 17 113 239 189 214 185 185 191 179 221 203 184 51 298 104 351 71 291 95 37 301 127 270 216 254 249 246 230 230 105 46 25 19 357 305
27 99 12 310 71 124 209 243 276 225 49 325 309 283 277 178 208 192 234 252 170 146 102 113 104 124 122 208 171 160 208 206 23 193 199 301 261 247 128 128 32 32 18 341 326
344 290 355 310 149 197 218 193 204 146 84 295 288 269 232 170 218 254 230 220 150 151 160 203 154 163 197 69 27 350 221 173 151 240 235 164 260 252 206 143 159 225 232 211 260
104 66 46 12 267 228 271 307 307 286 145 17 282 349 6 328 269 205 233 11 124 173 169 187 219 130 330 356 2 222 195 235 325 72 219 142 258 334 89 344 316 210 215 210 182
319 283 130 234 259 336 343 267 222 223 234 205 250 323 199 238 255 278 204 48 12 314 306 132 248 177 192 164 121 174 223 213 150 177 225 234 272 279 294 308 312 335 346 332 207
4 30 2 208 214 215 277 296 310 303 63 334 254 226 204 232 213 238 263 144 87 266 7 108 230 164 303 195 180 190 176 199 200 229 217 276 275 274 277 303 297 301 294 298 294
3 350 331 284 285 263 203 196 258 299 259 214 236 101 268 249 243 12 19 164 207 13 133 345 252 52 305 248 243 247 215 214 228 223 244 261 271 262 277 265 279 282 294 297 284
68 178 281 274 263 244 231 235 232 165 191 237 278 296 243 266 273 255 265 265 271 191 169 172 169 129 262 170 334 291 222 214 225 200 217 232 252 287 284 280 292 303 309 317 305